Hourly Data Report for June 02, 2003

SHERBROOKE A
QUEBEC

45°26'00.000" N
71°41'00.000" W
241.40 m
7028124
71610
YSC

Download Data

Hourly Data (June 2003)
Hourly Data Report for June 2, 2003
TIME
LST
Temp Definition
°C
Dew Point Definition
°C
Rel Hum Definition
%
Precip. Amount Definition
mm

Wind Dir Definition
10's deg

Wind Spd Definition
km/h
Visibility Definition
km
Stn Press Definition
kPa
Hmdx Definition


Wind Chill Definition


Weather Definition


00:00 7.2 6.6 96   31 9 15.0 97.53     Rain
01:00 7.1 6.1 93   29 7 15.0 97.52      
02:00 6.8 5.5 91   22 6 15.0 97.54      
03:00 5.0 4.1 94   23 6 15.0 97.56      
04:00 4.4 3.4 93   29 17 15.0 97.59      
05:00 4.3 3.2 93   28 13 15.0 97.67      
06:00 6.2 4.1 86   27 15 15.0 97.71      
07:00 8.4 4.6 77   28 15 24.1 97.77     Mainly Clear
08:00 10.4 5.0 69   28 13 24.1 97.78     Mainly Clear
09:00 12.5 5.3 61   25 17 24.1 97.76     Mainly Clear
10:00 13.7 4.0 52   27 15 24.1 97.75     Mainly Clear
11:00 15.7 4.8 48   27 22 24.1 97.71     Mainly Clear
12:00 16.6 6.2 50   27 26 24.1 97.67     Mainly Clear
13:00 15.2 3.5 45   30 26 24.1 97.67     Mostly Cloudy
14:00 17.2 5.0 44   27 35 24.1 97.64     Mainly Clear
15:00 17.5 0.6 32   30 24 24.1 97.67     Mainly Clear
16:00 16.7 1.0 35   28 20 24.1 97.70     Mainly Clear
17:00 15.7 0.2 35   29 20 15.0 97.75      
18:00 14.9 -0.4 35   30 19 15.0 97.84      
19:00 12.9 -1.1 38   30 15 15.0 97.96      
20:00 9.7 0.5 53   28 7 15.0 98.04      
21:00 8.6 0.3 56   28 7 15.0 98.13      
22:00 7.6 0.8 62   26 6 15.0 98.16      
23:00 4.2 1.5 83   26 4 15.0 98.19      

Notes on Data Quality.

Legend

  • E = Estimated
  • M = Missing
  • NA = Not Available*
  • [empty] = Indicates an unobserved value
Date modified: